Find TRYAD 1

NORAD ID: 66691 Int'l Des: NNA 2025-276 Owner: AUBU/UAH Country: US operational
LEOCIRCULARRETROGRADESSO

現在のビュー

3D地球を読み込み中...

About TRYAD 1

TRYAD 1 (NORAD 66691) is a satellite launched Nov 28, 2025 by AUBU/UAH of US. It operates in LEO, CIRCULAR, RETROGRADE, SSO orbit with a mass of 12.00 kg.

TRYAD 1について

説明を読み込み中...

次回通過

Passes for default location (London). Set your location on the main map for personalized predictions.

高度履歴

Loading altitude history...

軌道要素

1 66691U 25276AB 26159.72386058 .00008678 00000-0 39652-3 0 9999
2 66691 97.4199 233.5465 0005272 45.3836 314.7829 15.20796171 29141
Epoch: Jun 8, 2026 • Age: 10 hours

現在のステータス

高度 505.6 km
速度 7.62 km/s
衛星直下点 40.21°N, 75.21°W
打ち上げ日 Nov 28, 2025
運用期間 0.5 years
タイプ other

技術仕様

分類 Payload
質量 12.00 kg
乾燥質量 12.00 kg
総質量 12.00 kg
長さ 0.30 m
直径 0.20 m
スパン 0.30 m
形状 Box
製造者 AUBU
バスタイプ Cubesat 6U
フェーズステータス In Orbit
所有者/国 AUBU/UAH/US

Most Searched